| time (UTC) | temp C | wind direction | speed KPH | gust KPH | rain 1hr cm | rain 24hr cm | rain mn cm | humidity % | barometer mb |
| 20260906143227 | 27 | 81 | 0.0 | 0.0 | 0.00 | 0.00 | 0.00 | 51 | 1013.6 |
| 20260906142726 | 27 | 129 | 0.0 | 0.0 | 0.00 | 0.00 | 0.00 | 48 | 1013.5 |
| 20260906142222 | 26 | 145 | 1.6 | 1.6 | 0.00 | 0.00 | 0.00 | 49 | 1013.4 |
| 20260906141721 | 26 | 157 | 1.6 | 3.2 | 0.00 | 0.00 | 0.00 | 50 | 1013.3 |
| 20260906141216 | 26 | 79 | 0.0 | 0.0 | 0.00 | 0.00 | 0.00 | 51 | 1013.4 |
| 20260906140715 | 25 | 79 | 0.0 | 0.0 | 0.00 | 0.00 | 0.00 | 53 | 1013.4 |
| 20260906140210 | 25 | 79 | 1.6 | 1.6 | 0.00 | 0.00 | 0.00 | 53 | 1013.1 |
| 20260906135707 | 25 | 78 | 0.0 | 0.0 | 0.00 | 0.00 | 0.00 | 54 | 1013.1 |
| 20260906135203 | 25 | 79 | 1.6 | 1.6 | 0.00 | 0.00 | 0.00 | 55 | 1013.0 |
| 20260906134658 | 25 | 79 | 0.0 | 0.0 | 0.00 | 0.00 | 0.00 | 57 | 1012.9 |
| 20260906134153 | 25 | 79 | 0.0 | 0.0 | 0.00 | 0.00 | 0.00 | 55 | 1013.0 |
| 20260906133649 | 25 | 79 | 0.0 | 0.0 | 0.00 | 0.00 | 0.00 | 56 | 1013.0 |
| 20260906133144 | 25 | 79 | 0.0 | 0.0 | 0.00 | 0.00 | 0.00 | 55 | 1012.9 |
| 20260906132639 | 25 | 79 | 0.0 | 0.0 | 0.00 | 0.00 | 0.00 | 55 | 1013.0 |
| 20260906132135 | 25 | 79 | 0.0 | 0.0 | 0.00 | 0.00 | 0.00 | 56 | 1013.0 |
| 20260906131630 | 25 | 79 | 0.0 | 0.0 | 0.00 | 0.00 | 0.00 | 55 | 1013.1 |
| 20260906131125 | 25 | 78 | 0.0 | 0.0 | 0.00 | 0.00 | 0.00 | 55 | 1012.9 |
| 20260906130620 | 25 | 79 | 0.0 | 0.0 | 0.00 | 0.00 | 0.00 | 54 | 1012.9 |
| 20260906130115 | 25 | 78 | 0.0 | 0.0 | 0.00 | 0.00 | 0.00 | 54 | 1013.0 |
| 20260906125613 | 24 | 78 | 1.6 | 1.6 | 0.00 | 0.00 | 0.00 | 55 | 1013.0 |
| 20260906125112 | 24 | 88 | 0.0 | 0.0 | 0.00 | 0.00 | 0.00 | 55 | 1013.0 |
| 20260906124608 | 25 | 88 | 0.0 | 0.0 | 0.00 | 0.00 | 0.00 | 55 | 1013.2 |
| 20260906124102 | 25 | 88 | 0.0 | 0.0 | 0.00 | 0.00 | 0.00 | 55 | 1013.0 |
| 20260906123601 | 25 | 88 | 0.0 | 0.0 | 0.00 | 0.00 | 0.00 | 55 | 1012.9 |
| 20260906123057 | 25 | 88 | 1.6 | 1.6 | 0.00 | 0.00 | 0.00 | 55 | 1012.8 |
| 20260906122556 | 25 | 88 | 0.0 | 0.0 | 0.00 | 0.00 | 0.00 | 55 | 1012.6 |
| 20260906122052 | 25 | 88 | 0.0 | 0.0 | 0.00 | 0.00 | 0.00 | 54 | 1012.7 |
| 20260906121548 | 25 | 86 | 1.6 | 1.6 | 0.00 | 0.00 | 0.00 | 54 | 1012.8 |
| 20260906121044 | 25 | 86 | 0.0 | 0.0 | 0.00 | 0.00 | 0.00 | 54 | 1012.8 |
| 20260906120540 | 25 | 79 | 1.6 | 1.6 | 0.00 | 0.00 | 0.00 | 54 | 1012.8 |
| 20260906120037 | 25 | 88 | 1.6 | 1.6 | 0.00 | 0.00 | 0.00 | 54 | 1012.6 |
| 20260906115536 | 25 | 80 | 3.2 | 3.2 | 0.00 | 0.00 | 0.00 | 55 | 1012.6 |
| 20260906115032 | 25 | 84 | 1.6 | 1.6 | 0.00 | 0.00 | 0.00 | 55 | 1012.6 |
| 20260906114526 | 25 | 85 | 0.0 | 0.0 | 0.00 | 0.00 | 0.00 | 55 | 1012.4 |
| 20260906114021 | 25 | 83 | 0.0 | 0.0 | 0.00 | 0.00 | 0.00 | 54 | 1012.2 |
| 20260906113520 | 25 | 58 | 1.6 | 1.6 | 0.00 | 0.00 | 0.00 | 54 | 1012.2 |
| 20260906113016 | 25 | 68 | 1.6 | 1.6 | 0.00 | 0.00 | 0.00 | 54 | 1012.5 |
| 20260906112511 | 26 | 77 | 0.0 | 0.0 | 0.00 | 0.00 | 0.00 | 53 | 1012.2 |
| 20260906112007 | 26 | 76 | 0.0 | 0.0 | 0.00 | 0.00 | 0.00 | 53 | 1012.1 |
| 20260906111506 | 26 | 77 | 1.6 | 1.6 | 0.00 | 0.00 | 0.00 | 53 | 1012.1 |
| 20260906111001 | 26 | 89 | 0.0 | 0.0 | 0.00 | 0.00 | 0.00 | 51 | 1012.4 |
| 20260906110456 | 26 | 96 | 0.0 | 0.0 | 0.00 | 0.00 | 0.00 | 52 | 1012.0 |
| 20260906105954 | 26 | 85 | 1.6 | 1.6 | 0.00 | 0.00 | 0.00 | 52 | 1012.0 |
| 20260906105452 | 26 | 93 | 1.6 | 1.6 | 0.00 | 0.00 | 0.00 | 52 | 1012.2 |
| 20260906104947 | 26 | 119 | 1.6 | 1.6 | 0.00 | 0.00 | 0.00 | 52 | 1012.0 |
| 20260906104446 | 26 | 120 | 1.6 | 1.6 | 0.00 | 0.00 | 0.00 | 53 | 1012.2 |
| 20260906103945 | 26 | 84 | 0.0 | 0.0 | 0.00 | 0.00 | 0.00 | 54 | 1012.1 |
| 20260906103443 | 26 | 77 | 0.0 | 0.0 | 0.00 | 0.00 | 0.00 | 54 | 1012.2 |
| 20260906102938 | 26 | 77 | 0.0 | 0.0 | 0.00 | 0.00 | 0.00 | 54 | 1012.2 |
| 20260906102438 | 26 | 77 | 0.0 | 0.0 | 0.00 | 0.00 | 0.00 | 55 | 1012.1 |
| 20260906101933 | 26 | 77 | 0.0 | 0.0 | 0.00 | 0.00 | 0.00 | 55 | 1012.1 |
| 20260906101428 | 26 | 77 | 0.0 | 0.0 | 0.00 | 0.00 | 0.00 | 55 | 1012.1 |
| 20260906100924 | 26 | 66 | 0.0 | 0.0 | 0.00 | 0.00 | 0.00 | 56 | 1012.1 |
| 20260906100424 | 26 | 66 | 0.0 | 0.0 | 0.00 | 0.00 | 0.00 | 56 | 1012.4 |
| 20260906095918 | 26 | 66 | 0.0 | 0.0 | 0.00 | 0.00 | 0.00 | 55 | 1011.9 |
| 20260906095414 | 25 | 66 | 0.0 | 0.0 | 0.00 | 0.00 | 0.00 | 56 | 1011.9 |
| 20260906094908 | 25 | 66 | 0.0 | 0.0 | 0.00 | 0.00 | 0.00 | 57 | 1011.9 |
| 20260906094403 | 25 | 65 | 0.0 | 0.0 | 0.00 | 0.00 | 0.00 | 57 | 1011.9 |
| 20260906093859 | 25 | 66 | 0.0 | 0.0 | 0.00 | 0.00 | 0.00 | 57 | 1011.8 |
| 20260906093355 | 25 | 66 | 0.0 | 0.0 | 0.00 | 0.00 | 0.00 | 56 | 1011.8 |
| 20260906092855 | 25 | 66 | 0.0 | 0.0 | 0.00 | 0.00 | 0.00 | 56 | 1011.8 |
| 20260906092355 | 25 | 66 | 0.0 | 0.0 | 0.00 | 0.00 | 0.00 | 56 | 1012.0 |
| 20260906091850 | 26 | 66 | 0.0 | 0.0 | 0.00 | 0.00 | 0.00 | 56 | 1011.9 |
| 20260906091347 | 26 | 66 | 1.6 | 1.6 | 0.00 | 0.00 | 0.00 | 56 | 1011.9 |
| 20260906090843 | 26 | 65 | 0.0 | 0.0 | 0.00 | 0.00 | 0.00 | 56 | 1011.9 |
| 20260906090342 | 25 | 65 | 1.6 | 1.6 | 0.00 | 0.00 | 0.00 | 56 | 1012.0 |
| 20260906085836 | 25 | 65 | 0.0 | 0.0 | 0.00 | 0.00 | 0.00 | 56 | 1011.9 |
| 20260906085330 | 26 | 65 | 0.0 | 0.0 | 0.00 | 0.00 | 0.00 | 56 | 1012.2 |
| 20260906084825 | 26 | 65 | 0.0 | 0.0 | 0.00 | 0.00 | 0.00 | 56 | 1012.0 |
| 20260906084325 | 26 | 65 | 0.0 | 0.0 | 0.00 | 0.00 | 0.00 | 55 | 1012.0 |
| 20260906083819 | 26 | 65 | 0.0 | 0.0 | 0.00 | 0.00 | 0.00 | 54 | 1012.1 |
| 20260906083315 | 26 | 65 | 0.0 | 0.0 | 0.00 | 0.00 | 0.00 | 55 | 1011.9 |
| 20260906082809 | 26 | 65 | 0.0 | 0.0 | 0.00 | 0.00 | 0.00 | 54 | 1012.0 |
| 20260906082306 | 26 | 65 | 0.0 | 0.0 | 0.00 | 0.00 | 0.00 | 54 | 1012.1 |
| 20260906081800 | 26 | 65 | 0.0 | 0.0 | 0.00 | 0.00 | 0.00 | 53 | 1012.0 |
| 20260906081255 | 26 | 58 | 0.0 | 0.0 | 0.00 | 0.00 | 0.00 | 53 | 1012.0 |
| 20260906080752 | 26 | 57 | 0.0 | 0.0 | 0.00 | 0.00 | 0.00 | 53 | 1012.1 |
| 20260906080248 | 26 | 57 | 0.0 | 0.0 | 0.00 | 0.00 | 0.00 | 53 | 1012.2 |
| 20260906075748 | 27 | 57 | 0.0 | 0.0 | 0.00 | 0.00 | 0.00 | 52 | 1011.9 |
| 20260906075247 | 27 | 57 | 0.0 | 0.0 | 0.00 | 0.00 | 0.00 | 50 | 1012.1 |
| 20260906074743 | 27 | 57 | 0.0 | 0.0 | 0.00 | 0.00 | 0.00 | 49 | 1012.1 |
| 20260906074242 | 27 | 57 | 0.0 | 0.0 | 0.00 | 0.00 | 0.00 | 49 | 1012.1 |
| 20260906073742 | 27 | 57 | 0.0 | 0.0 | 0.00 | 0.00 | 0.00 | 49 | 1012.2 |
| 20260906073237 | 27 | 57 | 0.0 | 0.0 | 0.00 | 0.00 | 0.00 | 49 | 1012.6 |
| 20260906072732 | 27 | 53 | 1.6 | 1.6 | 0.00 | 0.00 | 0.00 | 51 | 1012.6 |
| 20260906072228 | 27 | 51 | 0.0 | 0.0 | 0.00 | 0.00 | 0.00 | 52 | 1012.5 |
| 20260906071724 | 27 | 51 | 0.0 | 0.0 | 0.00 | 0.00 | 0.00 | 52 | 1012.4 |
| 20260906071224 | 27 | 51 | 0.0 | 0.0 | 0.00 | 0.00 | 0.00 | 51 | 1012.5 |
| 20260906070721 | 27 | 51 | 0.0 | 0.0 | 0.00 | 0.00 | 0.00 | 50 | 1012.7 |
| 20260906070216 | 27 | 51 | 0.0 | 0.0 | 0.00 | 0.00 | 0.00 | 49 | 1012.5 |
| 20260906065715 | 27 | 51 | 0.0 | 0.0 | 0.00 | 0.00 | 0.00 | 49 | 1012.5 |
| 20260906065211 | 27 | 51 | 0.0 | 0.0 | 0.00 | 0.00 | 0.00 | 49 | 1012.2 |
| 20260906064706 | 27 | 51 | 0.0 | 0.0 | 0.00 | 0.00 | 0.00 | 49 | 1012.1 |
| 20260906064201 | 27 | 51 | 0.0 | 0.0 | 0.00 | 0.00 | 0.00 | 49 | 1012.5 |
| 20260906063656 | 27 | 50 | 0.0 | 1.6 | 0.00 | 0.00 | 0.00 | 49 | 1012.4 |
| 20260906063152 | 28 | 45 | 0.0 | 0.0 | 0.00 | 0.00 | 0.00 | 48 | 1012.6 |
| 20260906062648 | 28 | 45 | 0.0 | 0.0 | 0.00 | 0.00 | 0.00 | 48 | 1012.5 |
| 20260906062146 | 28 | 44 | 0.0 | 0.0 | 0.00 | 0.00 | 0.00 | 47 | 1012.5 |
| 20260906061643 | 28 | 44 | 0.0 | 0.0 | 0.00 | 0.00 | 0.00 | 47 | 1012.6 |
| 20260906061143 | 28 | 44 | 0.0 | 0.0 | 0.00 | 0.00 | 0.00 | 46 | 1012.7 |
| 20260906060639 | 28 | 44 | 0.0 | 0.0 | 0.00 | 0.00 | 0.00 | 45 | 1012.5 |
| 20260906060136 | 28 | 44 | 0.0 | 0.0 | 0.00 | 0.00 | 0.00 | 44 | 1012.5 |
| 20260906055632 | 28 | 44 | 0.0 | 0.0 | 0.00 | 0.00 | 0.00 | 45 | 1012.7 |
| 20260906055127 | 28 | 44 | 0.0 | 0.0 | 0.00 | 0.00 | 0.00 | 45 | 1012.4 |
| 20260906054622 | 28 | 44 | 0.0 | 0.0 | 0.00 | 0.00 | 0.00 | 44 | 1012.6 |
| 20260906054117 | 29 | 44 | 0.0 | 0.0 | 0.00 | 0.00 | 0.00 | 44 | 1012.6 |
| 20260906053614 | 29 | 44 | 0.0 | 0.0 | 0.00 | 0.00 | 0.00 | 43 | 1012.6 |
| 20260906053108 | 28 | 44 | 0.0 | 0.0 | 0.00 | 0.00 | 0.00 | 43 | 1012.6 |
| 20260906052604 | 28 | 44 | 0.0 | 0.0 | 0.00 | 0.00 | 0.00 | 43 | 1012.4 |
| 20260906052101 | 28 | 43 | 0.0 | 0.0 | 0.00 | 0.00 | 0.00 | 44 | 1012.7 |
| 20260906051556 | 29 | 43 | 0.0 | 0.0 | 0.00 | 0.00 | 0.00 | 44 | 1012.6 |
| 20260906051051 | 29 | 43 | 0.0 | 0.0 | 0.00 | 0.00 | 0.00 | 43 | 1012.7 |
| 20260906050546 | 30 | 42 | 0.0 | 0.0 | 0.00 | 0.00 | 0.00 | 42 | 1012.6 |
| 20260906050042 | 30 | 43 | 0.0 | 0.0 | 0.00 | 0.00 | 0.00 | 41 | 1012.5 |
| 20260906045539 | 30 | 347 | 0.0 | 0.0 | 0.00 | 0.00 | 0.00 | 41 | 1012.7 |
| 20260906045036 | 30 | 346 | 0.0 | 0.0 | 0.00 | 0.00 | 0.00 | 41 | 1012.8 |
| 20260906044531 | 30 | 346 | 0.0 | 0.0 | 0.00 | 0.00 | 0.00 | 40 | 1012.5 |
| 20260906044026 | 30 | 347 | 0.0 | 0.0 | 0.00 | 0.00 | 0.00 | 39 | 1012.6 |
| 20260906043522 | 30 | 346 | 0.0 | 0.0 | 0.00 | 0.00 | 0.00 | 38 | 1012.6 |
| 20260906043018 | 31 | 346 | 0.0 | 0.0 | 0.00 | 0.00 | 0.00 | 37 | 1012.7 |
| 20260906042516 | 31 | 327 | 1.6 | 1.6 | 0.00 | 0.00 | 0.00 | 37 | 1012.5 |
| 20260906042011 | 31 | 17 | 0.0 | 0.0 | 0.00 | 0.00 | 0.00 | 37 | 1012.5 |
| 20260906041508 | 31 | 1 | 1.6 | 1.6 | 0.00 | 0.00 | 0.00 | 37 | 1012.2 |
| 20260906041007 | 31 | 8 | 0.0 | 1.6 | 0.00 | 0.00 | 0.00 | 37 | 1012.6 |
| 20260906040503 | 31 | 7 | 1.6 | 1.6 | 0.00 | 0.00 | 0.00 | 36 | 1012.4 |
| 20260906035957 | 31 | 306 | 3.2 | 3.2 | 0.00 | 0.00 | 0.00 | 36 | 1012.7 |
| 20260906035453 | 31 | 0 | 1.6 | 1.6 | 0.00 | 0.00 | 0.00 | 36 | 1012.4 |
| 20260906034948 | 31 | 348 | 1.6 | 1.6 | 0.00 | 0.00 | 0.00 | 36 | 1012.4 |
| 20260906034443 | 31 | 293 | 0.0 | 1.6 | 0.00 | 0.00 | 0.00 | 36 | 1012.2 |
| 20260906033938 | 32 | 353 | 0.0 | 0.0 | 0.00 | 0.00 | 0.00 | 36 | 1012.6 |
| 20260906033433 | 32 | 342 | 1.6 | 1.6 | 0.00 | 0.00 | 0.00 | 36 | 1012.4 |
| 20260906032928 | 32 | 299 | 1.6 | 1.6 | 0.00 | 0.00 | 0.00 | 36 | 1011.9 |
| 20260906032425 | 32 | 351 | 4.8 | 9.7 | 0.00 | 0.00 | 0.00 | 36 | 1012.0 |
| 20260906031919 | 32 | 341 | 1.6 | 1.6 | 0.00 | 0.00 | 0.00 | 36 | 1011.9 |
| 20260906031414 | 32 | 358 | 1.6 | 1.6 | 0.00 | 0.00 | 0.00 | 36 | 1011.8 |
| 20260906030909 | 32 | 329 | 1.6 | 3.2 | 0.00 | 0.00 | 0.00 | 36 | 1011.8 |
| 20260906030404 | 32 | 293 | 3.2 | 3.2 | 0.00 | 0.00 | 0.00 | 35 | 1011.9 |
| 20260906025859 | 32 | 334 | 0.0 | 0.0 | 0.00 | 0.00 | 0.00 | 35 | 1011.8 |
| 20260906025353 | 32 | 288 | 3.2 | 3.2 | 0.00 | 0.00 | 0.00 | 35 | 1011.6 |
| 20260906024852 | 32 | 315 | 1.6 | 1.6 | 0.00 | 0.00 | 0.00 | 35 | 1011.7 |
| 20260906024351 | 32 | 300 | 4.8 | 4.8 | 0.00 | 0.00 | 0.00 | 35 | 1011.5 |
| 20260906023846 | 32 | 308 | 4.8 | 4.8 | 0.00 | 0.00 | 0.00 | 35 | 1011.7 |
| 20260906023342 | 32 | 304 | 1.6 | 1.6 | 0.00 | 0.00 | 0.00 | 35 | 1011.6 |
| 20260906022837 | 32 | 297 | 1.6 | 1.6 | 0.00 | 0.00 | 0.00 | 34 | 1011.6 |
| 20260906022338 | 32 | 318 | 1.6 | 1.6 | 0.00 | 0.00 | 0.00 | 34 | 1011.5 |
| 20260906021833 | 32 | 313 | 1.6 | 1.6 | 0.00 | 0.00 | 0.00 | 34 | 1011.2 |
| 20260906021332 | 32 | 322 | 4.8 | 3.2 | 0.00 | 0.00 | 0.00 | 34 | 1011.5 |
| 20260906020828 | 32 | 8 | 3.2 | 3.2 | 0.00 | 0.00 | 0.00 | 34 | 1011.4 |
| 20260906020327 | 32 | 10 | 3.2 | 4.8 | 0.00 | 0.00 | 0.00 | 34 | 1011.3 |
| 20260906015822 | 33 | 288 | 3.2 | 3.2 | 0.00 | 0.00 | 0.00 | 34 | 1011.4 |
| 20260906015320 | 33 | 299 | 4.8 | 8.0 | 0.00 | 0.00 | 0.00 | 34 | 1011.6 |
| 20260906014815 | 33 | 302 | 3.2 | 3.2 | 0.00 | 0.00 | 0.00 | 33 | 1011.4 |
| 20260906014310 | 33 | 333 | 8.0 | 11.3 | 0.00 | 0.00 | 0.00 | 33 | 1011.4 |
| 20260906013806 | 33 | 300 | 4.8 | 4.8 | 0.00 | 0.00 | 0.00 | 33 | 1011.4 |
| 20260906013301 | 33 | 18 | 1.6 | 1.6 | 0.00 | 0.00 | 0.00 | 33 | 1011.2 |
| 20260906012757 | 33 | 298 | 8.0 | 9.7 | 0.00 | 0.00 | 0.00 | 33 | 1011.5 |
| 20260906012251 | 33 | 272 | 8.0 | 11.3 | 0.00 | 0.00 | 0.00 | 32 | 1011.4 |
| 20260906011747 | 33 | 305 | 4.8 | 11.3 | 0.00 | 0.00 | 0.00 | 32 | 1011.3 |
| 20260906011246 | 33 | 316 | 4.8 | 8.0 | 0.00 | 0.00 | 0.00 | 32 | 1011.5 |
| 20260906010742 | 33 | 287 | 3.2 | 3.2 | 0.00 | 0.00 | 0.00 | 32 | 1011.5 |
| 20260906010238 | 34 | 295 | 8.0 | 9.7 | 0.00 | 0.00 | 0.00 | 32 | 1011.4 |
| 20260906005733 | 34 | 301 | 3.2 | 4.8 | 0.00 | 0.00 | 0.00 | 32 | 1011.5 |
| 20260906005232 | 35 | 345 | 6.4 | 11.3 | 0.00 | 0.00 | 0.00 | 31 | 1011.1 |
| 20260906004731 | 35 | 290 | 3.2 | 3.2 | 0.00 | 0.00 | 0.00 | 32 | 1011.1 |
| 20260906004227 | 35 | 300 | 6.4 | 9.7 | 0.00 | 0.00 | 0.00 | 31 | 1011.1 |
| 20260906003722 | 35 | 274 | 3.2 | 3.2 | 0.00 | 0.00 | 0.00 | 31 | 1011.2 |
| 20260906003218 | 35 | 288 | 8.0 | 12.9 | 0.00 | 0.00 | 0.00 | 31 | 1011.4 |
| 20260906002717 | 35 | 271 | 4.8 | 8.0 | 0.00 | 0.00 | 0.00 | 31 | 1011.5 |
| 20260906002212 | 35 | 300 | 8.0 | 11.3 | 0.00 | 0.00 | 0.00 | 30 | 1011.2 |
| 20260906001708 | 35 | 291 | 8.0 | 11.3 | 0.00 | 0.00 | 0.00 | 30 | 1011.3 |
| 20260906001207 | 35 | 292 | 6.4 | 8.0 | 0.00 | 0.00 | 0.00 | 30 | 1011.3 |
| 20260906000703 | 35 | 340 | 11.3 | 16.1 | 0.00 | 0.00 | 0.00 | 30 | 1011.1 |
| 20260906000158 | 36 | 276 | 8.0 | 14.5 | 0.00 | 0.00 | 0.00 | 30 | 1011.1 |
| 20260905235657 | 36 | 288 | 4.8 | 4.8 | 0.00 | 0.00 | 0.00 | 30 | 1011.1 |
| 20260905235152 | 36 | 319 | 8.0 | 11.3 | 0.00 | 0.00 | 0.00 | 30 | 1011.0 |
| 20260905234647 | 36 | 283 | 8.0 | 12.9 | 0.00 | 0.00 | 0.00 | 29 | 1011.1 |
| 20260905234143 | 36 | 276 | 4.8 | 4.8 | 0.00 | 0.00 | 0.00 | 29 | 1011.4 |
| 20260905233638 | 36 | 314 | 6.4 | 8.0 | 0.00 | 0.00 | 0.00 | 29 | 1011.1 |
| 20260905233137 | 36 | 268 | 4.8 | 4.8 | 0.00 | 0.00 | 0.00 | 29 | 1011.2 |
| 20260905232633 | 36 | 303 | 6.4 | 8.0 | 0.00 | 0.00 | 0.00 | 29 | 1011.3 |
| 20260905232128 | 36 | 291 | 8.0 | 11.3 | 0.00 | 0.00 | 0.00 | 29 | 1011.3 |
| 20260905231623 | 36 | 282 | 6.4 | 8.0 | 0.00 | 0.00 | 0.00 | 29 | 1011.5 |
| 20260905231120 | 37 | 269 | 6.4 | 9.7 | 0.00 | 0.00 | 0.00 | 28 | 1011.4 |
| 20260905230615 | 36 | 296 | 4.8 | 8.0 | 0.00 | 0.00 | 0.00 | 28 | 1011.5 |
| 20260905230113 | 36 | 306 | 8.0 | 9.7 | 0.00 | 0.00 | 0.00 | 28 | 1011.4 |
| 20260905225613 | 36 | 293 | 4.8 | 8.0 | 0.00 | 0.00 | 0.00 | 28 | 1011.4 |
| 20260905225108 | 36 | 277 | 4.8 | 4.8 | 0.00 | 0.00 | 0.00 | 29 | 1011.4 |
| 20260905224608 | 36 | 262 | 4.8 | 4.8 | 0.00 | 0.00 | 0.00 | 28 | 1011.3 |
| 20260905224107 | 36 | 299 | 6.4 | 9.7 | 0.00 | 0.00 | 0.00 | 29 | 1011.5 |
| 20260905223605 | 36 | 248 | 4.8 | 4.8 | 0.00 | 0.00 | 0.00 | 28 | 1011.5 |
| 20260905223101 | 36 | 295 | 4.8 | 9.7 | 0.00 | 0.00 | 0.00 | 29 | 1011.3 |
| 20260905222600 | 36 | 306 | 4.8 | 8.0 | 0.00 | 0.00 | 0.00 | 29 | 1011.7 |
| 20260905222055 | 36 | 288 | 6.4 | 11.3 | 0.00 | 0.00 | 0.00 | 29 | 1011.8 |
| 20260905221552 | 36 | 309 | 11.3 | 16.1 | 0.00 | 0.00 | 0.00 | 29 | 1011.8 |
| 20260905221048 | 36 | 324 | 4.8 | 3.2 | 0.00 | 0.00 | 0.00 | 29 | 1011.8 |
| 20260905220543 | 37 | 276 | 6.4 | 9.7 | 0.00 | 0.00 | 0.00 | 28 | 1011.9 |
| 20260905220039 | 36 | 295 | 1.6 | 3.2 | 0.00 | 0.00 | 0.00 | 29 | 1011.8 |
| 20260905215538 | 36 | 303 | 6.4 | 9.7 | 0.00 | 0.00 | 0.00 | 28 | 1012.0 |
| 20260905215035 | 36 | 298 | 4.8 | 9.7 | 0.00 | 0.00 | 0.00 | 29 | 1012.0 |
| 20260905214530 | 36 | 307 | 4.8 | 8.0 | 0.00 | 0.00 | 0.00 | 29 | 1011.9 |
| 20260905214025 | 36 | 319 | 8.0 | 11.3 | 0.00 | 0.00 | 0.00 | 29 | 1012.4 |
| 20260905213521 | 36 | 315 | 4.8 | 4.8 | 0.00 | 0.00 | 0.00 | 28 | 1012.2 |
| 20260905213016 | 36 | 302 | 4.8 | 8.0 | 0.00 | 0.00 | 0.00 | 30 | 1012.2 |
| 20260905212511 | 36 | 301 | 9.7 | 11.3 | 0.00 | 0.00 | 0.00 | 29 | 1012.5 |
| 20260905212010 | 36 | 300 | 3.2 | 3.2 | 0.00 | 0.00 | 0.00 | 29 | 1012.5 |
| 20260905211506 | 36 | 317 | 8.0 | 9.7 | 0.00 | 0.00 | 0.00 | 29 | 1012.5 |
| 20260905211001 | 36 | 21 | 3.2 | 3.2 | 0.00 | 0.00 | 0.00 | 29 | 1012.6 |
| 20260905210457 | 36 | 306 | 8.0 | 11.3 | 0.00 | 0.00 | 0.00 | 29 | 1012.8 |
| 20260905205956 | 36 | 24 | 4.8 | 4.8 | 0.00 | 0.00 | 0.00 | 30 | 1012.7 |
| 20260905205451 | 36 | 357 | 1.6 | 3.2 | 0.00 | 0.00 | 0.00 | 29 | 1012.8 |
| 20260905204949 | 36 | 321 | 4.8 | 4.8 | 0.00 | 0.00 | 0.00 | 29 | 1012.9 |
| 20260905204446 | 36 | 358 | 3.2 | 3.2 | 0.00 | 0.00 | 0.00 | 31 | 1012.9 |
| 20260905203945 | 36 | 7 | 4.8 | 4.8 | 0.00 | 0.00 | 0.00 | 30 | 1013.1 |
| 20260905203440 | 36 | 335 | 4.8 | 8.0 | 0.00 | 0.00 | 0.00 | 30 | 1013.0 |
| 20260905202936 | 35 | 9 | 3.2 | 3.2 | 0.00 | 0.00 | 0.00 | 31 | 1013.0 |
| 20260905202431 | 36 | 216 | 3.2 | 3.2 | 0.00 | 0.00 | 0.00 | 30 | 1013.4 |
| 20260905201926 | 36 | 269 | 3.2 | 4.8 | 0.00 | 0.00 | 0.00 | 30 | 1013.5 |
| 20260905201421 | 36 | 308 | 3.2 | 3.2 | 0.00 | 0.00 | 0.00 | 31 | 1013.2 |
| 20260905200921 | 36 | 300 | 8.0 | 9.7 | 0.00 | 0.00 | 0.00 | 30 | 1013.5 |
| 20260905200417 | 36 | 300 | 1.6 | 1.6 | 0.00 | 0.00 | 0.00 | 30 | 1013.5 |
| 20260905195915 | 36 | 352 | 4.8 | 4.8 | 0.00 | 0.00 | 0.00 | 30 | 1013.8 |
| 20260905195411 | 36 | 304 | 4.8 | 4.8 | 0.00 | 0.00 | 0.00 | 31 | 1013.6 |
| 20260905194906 | 36 | 32 | 4.8 | 8.0 | 0.00 | 0.00 | 0.00 | 30 | 1013.8 |
| 20260905194406 | 35 | 291 | 3.2 | 4.8 | 0.00 | 0.00 | 0.00 | 32 | 1013.9 |
| 20260905193906 | 35 | 298 | 8.0 | 9.7 | 0.00 | 0.00 | 0.00 | 31 | 1013.8 |
| 20260905193401 | 35 | 274 | 4.8 | 4.8 | 0.00 | 0.00 | 0.00 | 32 | 1013.8 |
| 20260905192856 | 35 | 250 | 1.6 | 3.2 | 0.00 | 0.00 | 0.00 | 31 | 1013.6 |
| 20260905192351 | 35 | 325 | 6.4 | 9.7 | 0.00 | 0.00 | 0.00 | 33 | 1014.0 |
| 20260905191851 | 35 | 136 | 1.6 | 1.6 | 0.00 | 0.00 | 0.00 | 33 | 1014.1 |
| 20260905191349 | 35 | 294 | 3.2 | 4.8 | 0.00 | 0.00 | 0.00 | 34 | 1014.3 |
| 20260905190844 | 35 | 322 | 3.2 | 3.2 | 0.00 | 0.00 | 0.00 | 34 | 1014.4 |
| 20260905190343 | 35 | 352 | 1.6 | 1.6 | 0.00 | 0.00 | 0.00 | 33 | 1014.4 |
| 20260905185841 | 35 | 188 | 4.8 | 3.2 | 0.00 | 0.00 | 0.00 | 34 | 1014.2 |
| 20260905185337 | 34 | 258 | 9.7 | 11.3 | 0.00 | 0.00 | 0.00 | 35 | 1014.4 |
| 20260905184836 | 34 | 278 | 1.6 | 1.6 | 0.00 | 0.00 | 0.00 | 37 | 1014.4 |
| 20260905184335 | 34 | 285 | 4.8 | 4.8 | 0.00 | 0.00 | 0.00 | 36 | 1014.7 |
| 20260905183834 | 35 | 246 | 4.8 | 4.8 | 0.00 | 0.00 | 0.00 | 35 | 1014.6 |
| 20260905183329 | 35 | 278 | 3.2 | 3.2 | 0.00 | 0.00 | 0.00 | 36 | 1014.8 |
| 20260905182824 | 33 | 158 | 1.6 | 0.0 | 0.00 | 0.00 | 0.00 | 35 | 1014.9 |
| 20260905182323 | 33 | 261 | 6.4 | 8.0 | 0.00 | 0.00 | 0.00 | 36 | 1014.8 |
| 20260905181819 | 34 | 315 | 3.2 | 4.8 | 0.00 | 0.00 | 0.00 | 36 | 1015.0 |
| 20260905181318 | 33 | 253 | 4.8 | 3.2 | 0.00 | 0.00 | 0.00 | 35 | 1014.9 |
| 20260905180818 | 33 | 272 | 4.8 | 4.8 | 0.00 | 0.00 | 0.00 | 36 | 1015.2 |
| 20260905180313 | 33 | 214 | 3.2 | 3.2 | 0.00 | 0.00 | 0.00 | 36 | 1015.2 |
| 20260905175808 | 33 | 352 | 0.0 | 0.0 | 0.00 | 0.00 | 0.00 | 37 | 1014.9 |
| 20260905175306 | 33 | 299 | 6.4 | 8.0 | 0.00 | 0.00 | 0.00 | 36 | 1015.3 |
| 20260905174758 | 33 | 297 | 4.8 | 8.0 | 0.00 | 0.00 | 0.00 | 37 | 1015.2 |
| 20260905174253 | 33 | 259 | 1.6 | 1.6 | 0.00 | 0.00 | 0.00 | 38 | 1015.2 |
| 20260905173749 | 34 | 297 | 3.2 | 3.2 | 0.00 | 0.00 | 0.00 | 38 | 1015.3 |
| 20260905173245 | 33 | 89 | 1.6 | 1.6 | 0.00 | 0.00 | 0.00 | 39 | 1015.2 |
| 20260905172744 | 34 | 277 | 1.6 | 1.6 | 0.00 | 0.00 | 0.00 | 37 | 1015.3 |
| 20260905172243 | 33 | 306 | 1.6 | 3.2 | 0.00 | 0.00 | 0.00 | 36 | 1015.4 |
| 20260905171740 | 32 | 318 | 1.6 | 1.6 | 0.00 | 0.00 | 0.00 | 40 | 1015.4 |
| 20260905171236 | 32 | 32 | 3.2 | 3.2 | 0.00 | 0.00 | 0.00 | 41 | 1015.5 |
| 20260905170732 | 32 | 22 | 1.6 | 1.6 | 0.00 | 0.00 | 0.00 | 39 | 1015.5 |
| 20260905170228 | 32 | 250 | 0.0 | 0.0 | 0.00 | 0.00 | 0.00 | 39 | 1015.4 |
| 20260905165726 | 32 | 229 | 1.6 | 1.6 | 0.00 | 0.00 | 0.00 | 41 | 1015.7 |
| 20260905165217 | 32 | 66 | 0.0 | 0.0 | 0.00 | 0.00 | 0.00 | 41 | 1015.5 |
| 20260905164717 | 32 | 93 | 3.2 | 3.2 | 0.00 | 0.00 | 0.00 | 42 | 1015.5 |
| 20260905164217 | 32 | 221 | 3.2 | 3.2 | 0.00 | 0.00 | 0.00 | 42 | 1015.6 |
| 20260905163712 | 32 | 252 | 4.8 | 4.8 | 0.00 | 0.00 | 0.00 | 41 | 1015.5 |
| 20260905163209 | 32 | 92 | 0.0 | 0.0 | 0.00 | 0.00 | 0.00 | 43 | 1015.6 |
| 20260905162705 | 32 | 119 | 0.0 | 0.0 | 0.00 | 0.00 | 0.00 | 43 | 1015.4 |
| 20260905162204 | 32 | 95 | 3.2 | 3.2 | 0.00 | 0.00 | 0.00 | 43 | 1015.6 |
| 20260905161700 | 32 | 70 | 1.6 | 3.2 | 0.00 | 0.00 | 0.00 | 43 | 1015.4 |
| 20260905161157 | 31 | 102 | 1.6 | 1.6 | 0.00 | 0.00 | 0.00 | 44 | 1015.5 |
| 20260905160656 | 31 | 91 | 0.0 | 1.6 | 0.00 | 0.00 | 0.00 | 43 | 1015.7 |
| 20260905160155 | 31 | 106 | 1.6 | 1.6 | 0.00 | 0.00 | 0.00 | 45 | 1015.4 |
| 20260905155650 | 32 | 85 | 1.6 | 1.6 | 0.00 | 0.00 | 0.00 | 44 | 1015.4 |
| 20260905155149 | 32 | 81 | 1.6 | 1.6 | 0.00 | 0.00 | 0.00 | 43 | 1015.3 |
| 20260905154644 | 32 | 97 | 0.0 | 0.0 | 0.00 | 0.00 | 0.00 | 43 | 1015.4 |
| 20260905154139 | 31 | 111 | 0.0 | 0.0 | 0.00 | 0.00 | 0.00 | 45 | 1015.5 |
| 20260905153635 | 31 | 103 | 0.0 | 0.0 | 0.00 | 0.00 | 0.00 | 46 | 1015.3 |
| 20260905153130 | 31 | 132 | 1.6 | 1.6 | 0.00 | 0.00 | 0.00 | 46 | 1015.6 |
| 20260905152625 | 30 | 120 | 0.0 | 0.0 | 0.00 | 0.00 | 0.00 | 50 | 1015.8 |
| 20260905152120 | 30 | 63 | 0.0 | 0.0 | 0.00 | 0.00 | 0.00 | 50 | 1015.5 |
| 20260905151615 | 29 | 63 | 1.6 | 1.6 | 0.00 | 0.00 | 0.00 | 51 | 1015.6 |
| 20260905151110 | 28 | 105 | 1.6 | 1.6 | 0.00 | 0.00 | 0.00 | 53 | 1015.3 |
| 20260905150606 | 29 | 82 | 3.2 | 3.2 | 0.00 | 0.00 | 0.00 | 54 | 1015.5 |
| 20260905150103 | 29 | 76 | 1.6 | 1.6 | 0.00 | 0.00 | 0.00 | 53 | 1015.3 |
| 20260905145556 | 29 | 76 | 1.6 | 1.6 | 0.00 | 0.00 | 0.00 | 52 | 1015.6 |
| 20260905145056 | 29 | 77 | 0.0 | 0.0 | 0.00 | 0.00 | 0.00 | 54 | 1015.5 |
| 20260905144551 | 28 | 76 | 0.0 | 0.0 | 0.00 | 0.00 | 0.00 | 55 | 1015.5 |
| 20260905144050 | 27 | 76 | 0.0 | 0.0 | 0.00 | 0.00 | 0.00 | 57 | 1015.5 |